KLM45RT EHAM-EGLL

Flight info

Callsign KLM45RT
Flight time N/A
Altitude 24000
Route IDRID L980 LOGAN
Aircraft B738/M-SDE2E3FGHIRWXY/LB1

Departure

Time 2026-04-27 11:36
Airport Amsterdam Airport Schiphol (EHAM)

Arrival

Time N/A
Airport London Heathrow Airport (EGLL)
Time Latitude Longitude Altitude Speed Heading
2026-04-27 11:04 52.30895 4.77303 -12 ft 0 kts
2026-04-27 11:05 52.30899 4.77303 -4 ft 0 kts
2026-04-27 11:20 52.30892 4.77302 -4 ft 4 kts
2026-04-27 11:20 52.30866 4.77293 -4 ft 4 kts 27°
2026-04-27 11:20 52.30847 4.77267 -4 ft 4 kts 68°
2026-04-27 11:20 52.30844 4.77244 -4 ft 0 kts 94°
2026-04-27 11:25 52.30843 4.77269 -4 ft 7 kts 94°
2026-04-27 11:25 52.30837 4.77416 -4 ft 18 kts 92°
2026-04-27 11:25 52.30863 4.77608 -4 ft 14 kts 30°
2026-04-27 11:25 52.30959 4.77617 -4 ft 14 kts
2026-04-27 11:26 52.31051 4.77625 -4 ft 13 kts
2026-04-27 11:26 52.31141 4.77632 -4 ft 13 kts
2026-04-27 11:26 52.31228 4.77640 -4 ft 12 kts
2026-04-27 11:26 52.31313 4.77648 -4 ft 12 kts
2026-04-27 11:27 52.31400 4.77652 -4 ft 13 kts 356°
2026-04-27 11:27 52.31491 4.77593 -4 ft 16 kts 324°
2026-04-27 11:27 52.31566 4.77450 -4 ft 18 kts 293°
2026-04-27 11:27 52.31576 4.77245 -4 ft 19 kts 265°
2026-04-27 11:28 52.31568 4.77019 -4 ft 21 kts 267°
2026-04-27 11:28 52.31560 4.76777 -4 ft 23 kts 267°
2026-04-27 11:28 52.31551 4.76511 -4 ft 24 kts 267°
2026-04-27 11:28 52.31542 4.76229 -4 ft 26 kts 266°
2026-04-27 11:29 52.31532 4.75930 -4 ft 27 kts 267°
2026-04-27 11:29 52.31520 4.75616 -4 ft 28 kts 266°
2026-04-27 11:29 52.31508 4.75289 -4 ft 29 kts 266°
2026-04-27 11:29 52.31497 4.74965 -4 ft 28 kts 267°
2026-04-27 11:30 52.31486 4.74661 -4 ft 26 kts 267°
2026-04-27 11:30 52.31481 4.74377 -4 ft 24 kts 282°
2026-04-27 11:30 52.31606 4.74294 -4 ft 21 kts
2026-04-27 11:30 52.31756 4.74310 -4 ft 22 kts
2026-04-27 11:31 52.31917 4.74326 -4 ft 24 kts
2026-04-27 11:31 52.32038 4.74212 -4 ft 23 kts 275°
2026-04-27 11:31 52.32044 4.73954 -4 ft 23 kts 270°
2026-04-27 11:31 52.32051 4.73693 -4 ft 24 kts 274°
2026-04-27 11:32 52.32069 4.73425 -4 ft 24 kts 288°
2026-04-27 11:32 52.32183 4.73259 -4 ft 23 kts 325°
2026-04-27 11:32 52.32293 4.73076 -4 ft 23 kts 315°
2026-04-27 11:32 52.32412 4.72901 -4 ft 23 kts 319°
2026-04-27 11:33 52.32530 4.72733 -4 ft 23 kts 319°
2026-04-27 11:33 52.32652 4.72559 -4 ft 23 kts 316°
2026-04-27 11:33 52.32761 4.72367 -4 ft 23 kts 311°
2026-04-27 11:33 52.32873 4.72161 -4 ft 25 kts 311°
2026-04-27 11:34 52.32989 4.71942 -4 ft 25 kts 309°
2026-04-27 11:34 52.33097 4.71731 -4 ft 23 kts 310°
2026-04-27 11:34 52.33128 4.71498 -4 ft 23 kts 237°
2026-04-27 11:34 52.33014 4.71321 -4 ft 23 kts 221°
2026-04-27 11:35 52.32896 4.71143 -4 ft 23 kts 229°
2026-04-27 11:35 52.32881 4.70915 -4 ft 17 kts 306°
2026-04-27 11:35 52.32970 4.70893 -5 ft 46 kts
2026-04-27 11:35 52.33629 4.70952 -2 ft 140 kts
2026-04-27 11:36 52.34863 4.71059 151 ft 204 kts
2026-04-27 11:36 52.36310 4.71212 1083 ft 212 kts
2026-04-27 11:36 52.37744 4.71347 2398 ft 208 kts
2026-04-27 11:36 52.39284 4.71485 2913 ft 237 kts
2026-04-27 11:37 52.41017 4.71621 3323 ft 257 kts
2026-04-27 11:37 52.42819 4.71371 4016 ft 264 kts 341°
2026-04-27 11:37 52.44396 4.69850 5015 ft 265 kts 318°
2026-04-27 11:37 52.45667 4.67704 6050 ft 262 kts 309°
2026-04-27 11:38 52.46510 4.65088 6895 ft 267 kts 286°
2026-04-27 11:38 52.46697 4.62017 7786 ft 269 kts 272°
2026-04-27 11:38 52.46719 4.58956 8524 ft 275 kts 271°
2026-04-27 11:38 52.46632 4.55801 9253 ft 280 kts 257°
2026-04-27 11:39 52.45791 4.52927 10114 ft 283 kts 232°
2026-04-27 11:39 52.44296 4.50792 10725 ft 293 kts 215°
2026-04-27 11:39 52.42552 4.48807 10902 ft 316 kts 222°
2026-04-27 11:39 52.41179 4.45870 11091 ft 336 kts 242°
2026-04-27 11:40 52.40051 4.42385 11263 ft 356 kts 243°
2026-04-27 11:40 52.38898 4.38706 11655 ft 368 kts 243°
2026-04-27 11:40 52.37719 4.34971 12335 ft 370 kts 243°
2026-04-27 11:40 52.36523 4.31236 13132 ft 371 kts 243°
2026-04-27 11:41 52.35313 4.27503 13915 ft 372 kts 243°
2026-04-27 11:41 52.34088 4.23752 14592 ft 376 kts 243°
2026-04-27 11:41 52.32849 4.19972 15236 ft 379 kts 243°
2026-04-27 11:41 52.31594 4.16160 15921 ft 382 kts 242°
2026-04-27 11:42 52.30159 4.12488 16591 ft 386 kts 236°
2026-04-27 11:42 52.28518 4.08984 17245 ft 390 kts 233°
2026-04-27 11:42 52.26802 4.05530 17893 ft 393 kts 232°
2026-04-27 11:42 52.25063 4.02056 18530 ft 397 kts 233°
2026-04-27 11:43 52.23323 3.98543 19073 ft 400 kts 233°
2026-04-27 11:43 52.21580 3.94984 19630 ft 402 kts 233°
2026-04-27 11:43 52.19839 3.91396 20180 ft 405 kts 234°
2026-04-27 11:43 52.18093 3.87778 20718 ft 407 kts 234°
2026-04-27 11:44 52.16337 3.84133 21240 ft 410 kts 234°
2026-04-27 11:44 52.14567 3.80458 21750 ft 413 kts 234°
2026-04-27 11:44 52.12812 3.76818 22243 ft 416 kts 234°
2026-04-27 11:44 52.11011 3.73090 22746 ft 418 kts 234°
2026-04-27 11:45 52.09207 3.69364 23237 ft 421 kts 234°
2026-04-27 11:45 52.08003 3.66877 23544 ft 423 kts 234°
2026-04-27 11:45 52.05578 3.61880 24106 ft 426 kts 234°
2026-04-27 11:45 52.03715 3.58047 24285 ft 426 kts 234°
2026-04-27 11:46 52.01899 3.54317 24316 ft 427 kts 234°
2026-04-27 11:46 52.00054 3.50533 24312 ft 426 kts 234°
2026-04-27 11:46 51.98276 3.46686 24310 ft 423 kts 239°
2026-04-27 11:46 51.96876 3.42527 24315 ft 419 kts 248°
2026-04-27 11:47 51.95896 3.38108 24318 ft 416 kts 254°
2026-04-27 11:47 51.95036 3.33611 24313 ft 416 kts 254°
2026-04-27 11:47 51.94172 3.29130 24313 ft 416 kts 253°
2026-04-27 11:47 51.93297 3.24648 24315 ft 417 kts 253°
2026-04-27 11:48 51.92422 3.20212 24313 ft 419 kts 253°
2026-04-27 11:48 51.91528 3.15720 24313 ft 419 kts 253°
2026-04-27 11:48 51.90629 3.11225 24308 ft 420 kts 253°
2026-04-27 11:48 51.89723 3.06712 24310 ft 421 kts 253°
2026-04-27 11:49 51.88816 3.02207 24309 ft 421 kts 253°
2026-04-27 11:49 51.87903 2.97684 24307 ft 422 kts 253°
2026-04-27 11:49 51.86990 2.93170 24307 ft 422 kts 253°
2026-04-27 11:49 51.86078 2.88669 24306 ft 422 kts 253°
2026-04-27 11:50 51.85162 2.84153 24308 ft 422 kts 253°
2026-04-27 11:50 51.84555 2.81168 24307 ft 422 kts 253°
2026-04-27 11:50 51.83638 2.76665 24307 ft 422 kts 253°
2026-04-27 11:50 51.82417 2.70687 24307 ft 421 kts 253°
2026-04-27 11:51 51.81587 2.66153 24301 ft 420 kts 258°
2026-04-27 11:51 51.81156 2.61487 24309 ft 419 kts 264°
2026-04-27 11:51 51.80664 2.53673 24301 ft 420 kts 265°
2026-04-27 11:52 51.80361 2.48976 24307 ft 421 kts 264°
2026-04-27 11:52 51.80045 2.44260 24307 ft 422 kts 264°
2026-04-27 11:52 51.79719 2.39546 24308 ft 422 kts 264°
2026-04-27 11:52 51.79386 2.34827 24306 ft 423 kts 264°
2026-04-27 11:53 51.79051 2.30093 24305 ft 424 kts 264°
2026-04-27 11:53 51.78712 2.25351 24309 ft 424 kts 264°
2026-04-27 11:53 51.78378 2.20617 24303 ft 424 kts 264°
2026-04-27 11:53 51.78083 2.15872 24305 ft 424 kts 265°
2026-04-27 11:54 51.77810 2.11129 24305 ft 424 kts 265°
2026-04-27 11:54 51.77546 2.06461 24266 ft 419 kts 265°
2026-04-27 11:54 51.77280 2.01824 23733 ft 411 kts 265°
2026-04-27 11:54 51.77011 1.97222 22836 ft 412 kts 265°
2026-04-27 11:55 51.76736 1.92607 21896 ft 413 kts 265°
2026-04-27 11:55 51.76458 1.87996 21093 ft 412 kts 265°
2026-04-27 11:55 51.76178 1.83408 20398 ft 408 kts 265°
2026-04-27 11:55 51.75899 1.78862 19721 ft 405 kts 265°
2026-04-27 11:56 51.75620 1.74349 19041 ft 402 kts 265°
2026-04-27 11:56 51.75343 1.69865 18329 ft 400 kts 265°
2026-04-27 11:56 51.75065 1.65414 17636 ft 397 kts 265°
2026-04-27 11:56 51.74791 1.61061 17033 ft 391 kts 265°
2026-04-27 11:57 51.74514 1.56724 16521 ft 386 kts 265°
2026-04-27 11:57 51.74232 1.52353 16390 ft 392 kts 264°
2026-04-27 11:57 51.73947 1.47983 16316 ft 388 kts 264°
2026-04-27 11:57 51.73666 1.43673 16311 ft 386 kts 264°
2026-04-27 11:58 51.73385 1.39397 16306 ft 388 kts 264°
2026-04-27 11:58 51.73097 1.35022 16302 ft 388 kts 264°
2026-04-27 11:58 51.72814 1.30749 16299 ft 387 kts 264°
2026-04-27 11:58 51.72526 1.26427 16297 ft 387 kts 264°
2026-04-27 11:59 51.72236 1.22104 16298 ft 387 kts 264°
2026-04-27 11:59 51.71945 1.17777 16298 ft 387 kts 264°
2026-04-27 11:59 51.71652 1.13455 16300 ft 387 kts 264°
2026-04-27 11:59 51.71362 1.09186 16295 ft 384 kts 264°
2026-04-27 12:00 51.71070 1.04914 16278 ft 382 kts 264°
2026-04-27 12:00 51.70777 1.00644 15948 ft 386 kts 264°
2026-04-27 12:00 51.70481 0.96371 15574 ft 381 kts 264°
2026-04-27 12:00 51.70188 0.92156 15096 ft 376 kts 264°
2026-04-27 12:01 51.69897 0.87985 14638 ft 372 kts 264°
2026-04-27 12:01 51.69609 0.83860 14191 ft 369 kts 264°
2026-04-27 12:01 51.69323 0.79763 13688 ft 367 kts 264°
2026-04-27 12:01 51.69038 0.75693 13194 ft 364 kts 264°
2026-04-27 12:02 51.68752 0.71656 12688 ft 359 kts 264°
2026-04-27 12:02 51.68470 0.67696 12198 ft 354 kts 264°
2026-04-27 12:02 51.68190 0.63786 11722 ft 349 kts 264°
2026-04-27 12:02 51.67911 0.59913 11245 ft 346 kts 264°
2026-04-27 12:03 51.67636 0.56096 10876 ft 340 kts 264°
2026-04-27 12:03 51.67370 0.52412 10620 ft 331 kts 264°
2026-04-27 12:03 51.67105 0.48760 10334 ft 324 kts 264°
2026-04-27 12:03 51.66841 0.45195 10028 ft 318 kts 264°
2026-04-27 12:04 51.66580 0.41660 9708 ft 315 kts 264°
2026-04-27 12:04 51.66322 0.38172 9393 ft 312 kts 264°
2026-04-27 12:04 51.66068 0.34711 9078 ft 309 kts 264°
2026-04-27 12:04 51.65813 0.31278 8771 ft 309 kts 264°
2026-04-27 12:05 51.65557 0.27849 8464 ft 307 kts 263°
2026-04-27 12:05 51.65301 0.24440 8161 ft 306 kts 264°
2026-04-27 12:05 51.65046 0.21038 7853 ft 305 kts 264°
2026-04-27 12:05 51.64794 0.17693 7550 ft 304 kts 264°
2026-04-27 12:06 51.64540 0.14317 7257 ft 303 kts 265°
2026-04-27 12:06 51.64334 0.10935 6972 ft 305 kts 266°
2026-04-27 12:06 51.64150 0.07530 6660 ft 306 kts 266°
2026-04-27 12:06 51.63969 0.04105 6377 ft 305 kts 266°
2026-04-27 12:07 51.63792 0.00708 6101 ft 304 kts 266°
2026-04-27 12:07 51.63615 -0.02679 6035 ft 305 kts 266°
2026-04-27 12:07 51.63424 -0.06086 6021 ft 304 kts 266°
2026-04-27 12:07 51.63237 -0.09460 6018 ft 303 kts 266°
2026-04-27 12:08 51.63045 -0.12835 6003 ft 302 kts 266°
2026-04-27 12:08 51.62848 -0.16214 6012 ft 305 kts 266°
2026-04-27 12:08 51.62653 -0.19613 6014 ft 306 kts 266°
2026-04-27 12:08 51.62456 -0.23022 6013 ft 305 kts 266°
2026-04-27 12:09 51.62267 -0.26364 6030 ft 302 kts 266°
2026-04-27 12:09 51.62071 -0.29740 6023 ft 304 kts 266°
2026-04-27 12:09 51.61868 -0.33169 6020 ft 303 kts 266°
2026-04-27 12:09 51.61670 -0.36505 6016 ft 302 kts 266°
2026-04-27 12:10 51.61472 -0.39849 6005 ft 297 kts 266°
2026-04-27 12:10 51.61282 -0.43084 6000 ft 284 kts 266°
2026-04-27 12:10 51.61096 -0.46186 6008 ft 274 kts 265°
2026-04-27 12:10 51.60911 -0.49222 6004 ft 271 kts 266°
2026-04-27 12:11 51.60731 -0.52221 6034 ft 268 kts 266°
2026-04-27 12:11 51.60554 -0.55215 6014 ft 269 kts 265°
2026-04-27 12:11 51.60334 -0.58207 5979 ft 269 kts 266°
2026-04-27 12:11 51.60160 -0.61190 5755 ft 269 kts 266°
2026-04-27 12:12 51.59991 -0.64184 5414 ft 267 kts 266°
2026-04-27 12:12 51.59801 -0.67152 5011 ft 260 kts 265°
2026-04-27 12:12 51.59631 -0.69929 4613 ft 246 kts 265°
2026-04-27 12:12 51.59468 -0.72631 4107 ft 235 kts 266°
2026-04-27 12:13 51.59316 -0.75201 3674 ft 230 kts 265°
2026-04-27 12:13 51.58837 -0.77568 3507 ft 218 kts 237°
2026-04-27 12:13 51.57733 -0.79097 3542 ft 210 kts 209°
2026-04-27 12:13 51.56324 -0.79740 3504 ft 208 kts 182°
2026-04-27 12:14 51.54856 -0.79646 3499 ft 215 kts 177°
2026-04-27 12:14 51.53355 -0.79519 3578 ft 219 kts 177°
2026-04-27 12:14 51.51803 -0.79400 3514 ft 221 kts 177°
2026-04-27 12:14 51.50337 -0.79292 3525 ft 205 kts 177°
2026-04-27 12:15 51.49008 -0.78787 3440 ft 191 kts 141°
2026-04-27 12:15 51.48349 -0.77087 3516 ft 182 kts 103°
2026-04-27 12:15 51.47753 -0.75190 3159 ft 205 kts 135°
2026-04-27 12:15 51.46804 -0.73653 2938 ft 196 kts 117°
2026-04-27 12:16 51.46747 -0.71706 3130 ft 161 kts 67°
2026-04-27 12:16 51.47213 -0.69868 2889 ft 185 kts 70°
2026-04-27 12:16 51.47551 -0.67916 2646 ft 177 kts 75°
2026-04-27 12:16 51.47747 -0.66019 2397 ft 170 kts 84°
2026-04-27 12:17 51.47703 -0.64115 2149 ft 171 kts 92°
2026-04-27 12:17 51.47710 -0.62185 1886 ft 172 kts 83°
2026-04-27 12:17 51.47750 -0.60242 1802 ft 195 kts 88°
2026-04-27 12:17 51.47700 -0.57894 1696 ft 199 kts 92°
2026-04-27 12:18 51.47718 -0.55862 1422 ft 177 kts 83°
2026-04-27 12:18 51.47738 -0.53825 752 ft 179 kts 89°
2026-04-27 12:18 51.47729 -0.51924 513 ft 159 kts 89°
2026-04-27 12:18 51.47747 -0.50232 275 ft 140 kts 86°
2026-04-27 12:19 51.47742 -0.48802 101 ft 121 kts 88°
2026-04-27 12:19 51.47754 -0.47627 82 ft 54 kts 90°